Sabula, IA

3:51 AM CST on February 11, 2016 (GMT -0600)
Tri-Township

Weather History for KSFY - March, 2013

Change the Weather History Date:

Wednesday, March 20, 2013

  Actual Average (KDBQ) Record (KDBQ)
Temperature  
Mean Temperature 18 °F 37 °F  
Max Temperature 24 °F 46 °F 80 °F (2012)
Min Temperature 12 °F 28 °F 3 °F (1965)
Degree Days  
Heating Degree Days 47 28  
Month to date heating degree days 640  
Since 1 July heating degree days 6033  
Cooling Degree Days 0 0  
Month to date cooling degree days 0  
Year to date cooling degree days 0  
Moisture  
Dew Point 7 °F    
Average Humidity 60    
Maximum Humidity 70    
Minimum Humidity 50    
Precipitation  
Precipitation 0.00 in 0.09 in 2.05 in (1886)
Month to date precipitation 1.42  
Year to date precipitation 4.03  
Snow  
Snow 0.00 in 0.20 in - ()
Month to date snowfall 4.5  
Since 1 July snowfall 38.1  
Snow Depth -    
Sea Level Pressure  
Sea Level Pressure 30.13 in    
Wind  
Wind Speed 15 mph (WNW)    
Max Wind Speed 23 mph    
Max Gust Speed 30 mph    
Visibility 10 miles    
Events      
T = Trace of Precipitation, MM = Missing Value Source: NWS Daily Summary

Daily Weather History Graph

Daily Weather History Graph

Search for Another Location

Airport or City:

Trip Planner

Search our weather history database for the weather conditions in past years. The results will help you decide how hot, cold, wet, or windy it might be!

Date:

Astronomy

Mar. 20, 2013 Rise Set
Actual Time 7:03 AM CDT 7:12 PM CDT
Civil Twilight 6:35 AM CDT 7:40 PM CDT
Nautical Twilight 6:02 AM CDT 8:13 PM CDT
Astronomical Twilight 5:29 AM CDT 8:47 PM CDT
Moon 12:42 PM CDT (3/20) 2:48 AM CDT (3/20)
Length of Visible Light 13h 05m
Length of Day
12h 09m
First Quarter, 59% of the Moon is Illuminated
Mar 20
First Quarter
Mar 27
Full
Apr 2
Last Quarter
Apr 10
New
Apr 18
First Quarter

Hourly Weather History & Observations

Time (CDT) Temp. Windchill Dew Point Humidity Pressure Visibility Wind Dir Wind Speed Gust Speed Precip Events Conditions
12:15 AM 23.9 °F 10.8 °F 13.3 °F 64% 30.11 in 10.0 mi WNW 16.1 mph 23.0 mph N/A   Clear
12:35 AM 23.0 °F 8.3 °F 12.9 °F 65% 30.12 in 10.0 mi WNW 19.6 mph 26.5 mph N/A   Clear
12:55 AM 22.1 °F 9.5 °F 12.0 °F 65% 30.12 in 10.0 mi WNW 13.8 mph 23.0 mph N/A   Clear
1:15 AM 21.2 °F 7.8 °F 10.2 °F 63% 30.12 in 10.0 mi WNW 15.0 mph 25.3 mph N/A   Clear
1:35 AM 20.3 °F 5.7 °F 10.2 °F 65% 30.13 in 10.0 mi WNW 17.3 mph 24.2 mph N/A   Clear
1:55 AM 19.4 °F 5.0 °F 9.5 °F 65% 30.13 in 10.0 mi WNW 16.1 mph 20.7 mph N/A   Clear
2:15 AM 18.9 °F 4.8 °F 9.9 °F 68% 30.13 in 10.0 mi West 15.0 mph 19.6 mph N/A   Clear
2:35 AM 18.1 °F 5.0 °F 9.3 °F 68% 30.14 in 10.0 mi WNW 12.7 mph 18.4 mph N/A   Clear
2:55 AM 17.4 °F 5.4 °F 8.6 °F 68% 30.14 in 10.0 mi West 10.4 mph 16.1 mph N/A   Clear
3:15 AM 16.2 °F 1.3 °F 6.6 °F 66% 30.14 in 10.0 mi WNW 15.0 mph - N/A   Clear
3:35 AM 15.6 °F 0.6 °F 5.2 °F 63% 30.14 in 10.0 mi WNW 15.0 mph 25.3 mph N/A   Clear
3:55 AM 14.9 °F -0.3 °F 5.2 °F 65% 30.14 in 10.0 mi WNW 15.0 mph 20.7 mph N/A   Clear
4:15 AM 14.7 °F 0.1 °F 4.8 °F 65% 30.14 in 10.0 mi WNW 13.8 mph 20.7 mph N/A   Clear
4:35 AM 14.2 °F 0.0 °F 4.1 °F 64% 30.14 in 10.0 mi WNW 12.7 mph 21.9 mph N/A   Clear
4:55 AM 13.8 °F -1.7 °F 3.9 °F 65% 30.15 in 10.0 mi WNW 15.0 mph 21.9 mph N/A   Clear
5:15 AM 13.6 °F -2.4 °F 3.6 °F 64% 30.15 in 10.0 mi WNW 16.1 mph 19.6 mph N/A   Clear
5:35 AM 13.1 °F -2.0 °F 3.2 °F 65% 30.15 in 10.0 mi WNW 13.8 mph 21.9 mph N/A   Clear
5:55 AM 12.9 °F -1.6 °F 3.0 °F 65% 30.16 in 10.0 mi WNW 12.7 mph 20.7 mph N/A   Clear
6:15 AM 12.6 °F -2.0 °F 2.3 °F 64% 30.16 in 10.0 mi WNW 12.7 mph - N/A   Clear
6:35 AM 12.2 °F -3.1 °F 2.1 °F 64% 30.17 in 10.0 mi WNW 13.8 mph 18.4 mph N/A   Clear
6:55 AM 12.2 °F -1.0 °F 2.5 °F 65% 30.17 in 10.0 mi WNW 10.4 mph - N/A   Clear
7:15 AM 12.0 °F -1.3 °F 2.1 °F 65% 30.17 in 10.0 mi WNW 10.4 mph 19.6 mph N/A   Clear
7:35 AM 12.0 °F -1.3 °F 2.1 °F 65% 30.18 in 10.0 mi WNW 10.4 mph 17.3 mph N/A   Clear
7:55 AM 12.4 °F -2.3 °F 2.1 °F 64% 30.18 in 10.0 mi WNW 12.7 mph 18.4 mph N/A   Clear
8:15 AM 12.7 °F -3.0 °F 2.5 °F 64% 30.18 in 10.0 mi WNW 15.0 mph 20.7 mph N/A   Clear
8:35 AM 13.1 °F -2.6 °F 2.8 °F 64% 30.18 in 10.0 mi WNW 15.0 mph 20.7 mph N/A   Clear
8:55 AM 13.8 °F -1.1 °F 2.8 °F 62% 30.18 in 10.0 mi West 13.8 mph 21.9 mph N/A   Clear
9:15 AM 14.7 °F 0.7 °F 3.7 °F 62% 30.18 in 10.0 mi West 12.7 mph 17.3 mph N/A   Clear
9:35 AM 15.3 °F -1.3 °F 3.7 °F 60% 30.19 in 10.0 mi WNW 18.4 mph 25.3 mph N/A   Clear
9:55 AM 15.8 °F -0.2 °F 3.7 °F 59% 30.18 in 10.0 mi WNW 17.3 mph 24.2 mph N/A   Clear
10:15 AM 16.5 °F 0.8 °F 3.9 °F 58% 30.17 in 10.0 mi WNW 17.3 mph 24.2 mph N/A   Clear
10:55 AM 17.8 °F 3.4 °F 4.8 °F 57% 30.17 in 10.0 mi WNW 15.0 mph 25.3 mph N/A   Clear
11:15 AM 17.8 °F 2.9 °F 4.8 °F 57% 30.17 in 10.0 mi West 16.1 mph 23.0 mph N/A   Clear
11:35 AM 18.7 °F 3.6 °F 5.4 °F 56% 30.16 in 10.0 mi West 17.3 mph 24.2 mph N/A   Clear
11:55 AM 19.0 °F 5.0 °F 5.4 °F 55% 30.16 in 10.0 mi West 15.0 mph 23.0 mph N/A   Clear
12:15 PM 19.6 °F 5.7 °F 5.9 °F 55% 30.16 in 10.0 mi West 15.0 mph 24.2 mph N/A   Clear
12:35 PM 19.8 °F 6.5 °F 6.4 °F 56% 30.16 in 10.0 mi West 13.8 mph 21.9 mph N/A   Scattered Clouds
12:55 PM 20.8 °F 6.4 °F 6.8 °F 55% 30.15 in 10.0 mi WNW 17.3 mph 23.0 mph N/A   Scattered Clouds
1:15 PM 22.1 °F 8.0 °F 7.7 °F 54% 30.14 in 10.0 mi WNW 17.3 mph 24.2 mph N/A   Scattered Clouds
1:35 PM 22.3 °F 9.2 °F 7.5 °F 53% 30.13 in 10.0 mi WNW 15.0 mph 26.5 mph N/A   Scattered Clouds
1:55 PM 22.6 °F 8.3 °F 7.7 °F 53% 30.13 in 10.0 mi West 18.4 mph 25.3 mph N/A   Mostly Cloudy
2:15 PM 21.9 °F 9.2 °F 8.4 °F 56% 30.12 in 10.0 mi West 13.8 mph 23.0 mph N/A   Scattered Clouds
2:35 PM 22.8 °F 8.5 °F 7.7 °F 52% 30.11 in 10.0 mi West 18.4 mph 27.6 mph N/A   Scattered Clouds
2:55 PM 23.9 °F 9.9 °F 9.0 °F 53% 30.10 in 10.0 mi WNW 18.4 mph 26.5 mph N/A   Scattered Clouds
3:15 PM 23.7 °F 10.1 °F 8.4 °F 52% 30.10 in 10.0 mi West 17.3 mph 25.3 mph N/A   Scattered Clouds
3:35 PM 23.9 °F 11.2 °F 8.6 °F 52% 30.10 in 10.0 mi West 15.0 mph 28.8 mph N/A   Mostly Cloudy
3:55 PM 24.8 °F 10.7 °F 9.5 °F 52% 30.09 in 10.0 mi WNW 19.6 mph 27.6 mph N/A   Scattered Clouds
4:15 PM 24.6 °F 11.7 °F 8.2 °F 50% 30.08 in 10.0 mi WNW 16.1 mph 25.3 mph N/A   Scattered Clouds
4:35 PM 23.9 °F 9.1 °F 8.8 °F 53% 30.08 in 10.0 mi West 20.7 mph 29.9 mph N/A   Mostly Cloudy
4:55 PM 24.3 °F 12.2 °F 8.4 °F 51% 30.09 in 10.0 mi West 13.8 mph 28.8 mph N/A   Scattered Clouds
5:15 PM 24.4 °F 9.9 °F 8.2 °F 50% 30.09 in 10.0 mi WNW 20.7 mph 27.6 mph N/A   Scattered Clouds
5:35 PM 24.1 °F 8.7 °F 8.8 °F 52% 30.09 in 10.0 mi WNW 23.0 mph 29.9 mph N/A   Scattered Clouds
5:55 PM 23.5 °F 11.3 °F 9.3 °F 55% 30.09 in 10.0 mi West 13.8 mph 28.8 mph N/A   Scattered Clouds
6:15 PM 23.5 °F 9.4 °F 9.0 °F 54% 30.09 in 10.0 mi WNW 18.4 mph 27.6 mph N/A   Scattered Clouds
6:35 PM 22.6 °F 8.7 °F 9.1 °F 56% 30.09 in 10.0 mi West 17.3 mph 25.3 mph N/A   Mostly Cloudy
6:55 PM 22.1 °F 8.0 °F 8.8 °F 57% 30.09 in 10.0 mi WNW 17.3 mph 28.8 mph N/A   Scattered Clouds
7:15 PM 21.7 °F 7.5 °F 8.8 °F 57% 30.09 in 10.0 mi WNW 17.3 mph 25.3 mph N/A   Clear
7:35 PM 21.6 °F 7.8 °F 8.6 °F 57% 30.09 in 10.0 mi WNW 16.1 mph 23.0 mph N/A   Scattered Clouds
7:55 PM 21.2 °F 8.3 °F 9.1 °F 60% 30.09 in 10.0 mi WNW 13.8 mph 24.2 mph N/A   Mostly Cloudy
8:15 PM 21.2 °F 9.5 °F 9.9 °F 62% 30.09 in 10.0 mi West 11.5 mph 18.4 mph N/A   Mostly Cloudy
8:35 PM 21.2 °F 8.9 °F 10.2 °F 63% 30.09 in 10.0 mi WNW 12.7 mph - N/A   Overcast
8:55 PM 20.8 °F 9.0 °F 8.4 °F 59% 30.10 in 10.0 mi NW 11.5 mph 20.7 mph N/A   Mostly Cloudy
9:15 PM 19.9 °F 7.3 °F 9.3 °F 63% 30.10 in 10.0 mi NW 12.7 mph 16.1 mph N/A   Overcast
9:35 PM 19.4 °F 6.6 °F 9.1 °F 64% 30.10 in 10.0 mi NW 12.7 mph 17.3 mph N/A   Mostly Cloudy
9:55 PM 19.0 °F 6.8 °F 7.7 °F 61% 30.10 in 10.0 mi NW 11.5 mph - N/A   Scattered Clouds
10:15 PM 18.5 °F 7.5 °F 7.9 °F 63% 30.10 in 10.0 mi NW 9.2 mph - N/A   Clear
10:35 PM 18.3 °F 7.3 °F 7.7 °F 63% 30.11 in 10.0 mi WNW 9.2 mph - N/A   Clear
10:55 PM 17.8 °F 6.6 °F 8.1 °F 66% 30.11 in 10.0 mi WNW 9.2 mph - N/A   Clear
11:15 PM 17.4 °F 7.1 °F 8.2 °F 67% 30.11 in 10.0 mi NW 8.1 mph - N/A   Clear
11:35 PM 17.2 °F 6.8 °F 7.9 °F 67% 30.11 in 10.0 mi NW 8.1 mph - N/A   Clear
11:55 PM 16.7 °F 7.2 °F 8.4 °F 70% 30.10 in 10.0 mi NW 6.9 mph - N/A   Clear